Regional Weather Roundup
Issued by NWS Goodland, KS

Home | Current Version | Previous Version | Graphics & Text | Print | Product List | Glossary On
Versions: 1 2 3 4 5 6 7 8 9 10 11 12 13 14 15 16 17 18 19 20 21 22 23 24 25 26 27 28 29 30 31 32 33 34 35 36 37 38 39 40 41 42 43 44 45 46 47 48 49 50
000
ASUS43 KGLD 230659
RWRGLD

GOODLAND FORECAST AREA HOURLY WEATHER ROUNDUP
NATIONAL WEATHER SERVICE GOODLAND KS
100 AM MDT FRI JUN 23 2017

...OFFICIAL OBSERVATIONS...

CITY           SKY/WX    TMP DP  RH WIND       PRES   REMARKS
GOODLAND KS    CLOUDY    67  55  65 NE13      30.02R
HILL CITY KS   CLOUDY    70  60  70 N12       29.92S
IMPERIAL NEB   MOCLDY    63  47  55 NE9       30.00R
MCCOOK NEB     MOCLDY    63  49  60 NE8       29.95R
AKRON CO       CLOUDY    63  51  65 E9        30.06R
BURLINGTON CO  CLOUDY    66  57  72 E10       30.04R
LIMON CO       CLOUDY    60  55  83 SE8       30.09S
$$

...UNOFFICIAL OBSERVATIONS...

CITY           SKY/WX    TMP DP  RH WIND       PRES   REMARKS
LENORA KS        N/A     64  32  30 MISG        N/A
NORTON KS      CLEAR     66  54  63 NE5       29.93
SHARON SPRINGS   N/A     69  60  74 NE8G18      N/A
TRENTON NEB      N/A     63  32  31 E6          N/A
KIT CARSON CO    N/A     65  57  76 CALM        N/A
YUMA CO        FAIR      61  50  67 E7        30.04R
$$



USA.gov is the U.S. government's official web portal to all federal, state and local government web resources and services.